Regional Weather Roundup
Issued by NWS

Home | Current Version | Previous Version | Text Only | Print | Product List | Glossary On
Versions: 1 2 3 4 5 6 7 8 9 10 11 12 13 14 15 16 17 18 19 20 21 22 23 24 25 26 27 28 29 30 31 32 33 34 35 36 37 38 39 40 41 42 43 44 45 46 47 48 49 50
000
ASUS44 KLUB 122010
RWRTX
WEST TEXAS WEATHER ROUNDUP
NATIONAL WEATHER SERVICE LUBBOCK TX
200 PM CST FRI FEB 12 2016

NOTE: "FAIR" INDICATES FEW OR NO CLOUDS BELOW 12,000 FEET WITH NO
SIGNIFICANT WEATHER AND/OR OBSTRUCTIONS TO VISIBILITY.

TXZ004-006>008-010-012-014-016-OKZ002-122100-
TEXAS PANHANDLE/OKLAHOMA PANHANDLE

CITY           SKY/WX    TMP DP  RH WIND       PRES   REMARKS
AMARILLO       SUNNY     64  27  24 SE15G21   30.32F
BORGER         SUNNY     63  28  26 SE9G17    30.33F
CANADIAN       SUNNY     64  32  30 SE7       30.33F
DALHART        SUNNY     63  25  23 SE9       30.33F
DUMAS          SUNNY     63  27  25 E9        30.33F
GUYMON         SUNNY     59  30  33 SE12      30.33F
PAMPA          SUNNY     64  28  25 SE10      30.33F
PERRYTON       SUNNY     62  32  32 E7        30.34F
$$

TXZ026-029-035-045-048-122100-
SOUTHERN PANHANDLE/SOUTH PLAINS/ROLLING PLAINS

CITY           SKY/WX    TMP DP  RH WIND       PRES   REMARKS
CHILDRESS      SUNNY     66  34  30 E12       30.30F
SEMINOLE       SUNNY     73  24  16 SE7       30.27F
LUBBOCK        MOSUNNY   67  25  20 E10G17    30.29F
PLAINVIEW      SUNNY     65  27  24 E9        30.29F
SNYDER           N/A     68  31  25 NE9       30.28F
$$

TXZ052-054-060>062-072-078-127-140-154-169-122100-
PERMIAN BASIN/CONCHO VALLEY/BIG COUNTRY/EDWARDS PLATEAU

CITY           SKY/WX    TMP DP  RH WIND       PRES   REMARKS
ABILENE        SUNNY     71  29  21 NE12      30.27F
BIG SPRING     SUNNY     70  32  24 NE10      30.28F
BROWNWOOD      SUNNY     73  32  21 E9        30.25F
JUNCTION       SUNNY     76  32  20 E9        30.22F
MIDLAND        SUNNY     73  27  18 VRB6      30.25F
ODESSA         SUNNY     73  29  19 E10       30.26F
SAN ANGELO     SUNNY     73  33  23 NE10      30.24F
SONORA         SUNNY     75  30  19 NE6       30.27F
SWEETWATER     SUNNY     69  29  23 NE13G18   30.29F
WINK           SUNNY     72  25  17 CALM      30.23F
$$

TXZ055-058-074-075-080-082-122100-
FAR WEST/SOUTHWEST MOUNTAINS/TRANS PECOS

CITY           SKY/WX    TMP DP  RH WIND       PRES   REMARKS
ALPINE         SUNNY     75  11   8 SE5       30.32F
DRYDEN           N/A     80  24  12 S10       30.19F
EL PASO        SUNNY     69  12  11 CALM      30.27F
FORT STOCKTON  SUNNY     71  25  17 NE7       30.26F
GUADALUPE PASS SUNNY     67  15  13 VRB6      30.34F
MARFA          SUNNY     74   3   6 S8        30.31F
PECOS          SUNNY     71  27  19 N6        30.25F
PRESIDIO       FAIR      73  20  13 SW3       30.25F
$$

TXZ014-016-019-021>030-083-122100
TEXAS TECH WEST TEXAS MESONET/TEXAS PANHANDLE/NORTHERN SOUTH PLAINS

CITY           SKY/WX    TMP DP  RH WIND       PRES   REMARKS
ABERNATHY 5ENE   N/A     69  25  19 SE10      30.29F
AMARILLO 9NNE    N/A     65  28  24 E9        30.31F
AMARILLO 7SSE    N/A     65  29  26 E9        30.32F
AMHERST 1NE      N/A     67  24  19 SE9       30.28F
BOOTLEG 11WNW    N/A     64  25  23 SE10      30.32F
CANADIAN 6E      N/A     63  31  29 NE7       30.31F
CAPROCK CYN SP   N/A     64  30  28 NE13      30.31F
CHILDRESS 2NNE   N/A     66  33  28 E12       30.30F
CLARENDON 2WSW   N/A     65  29  26 E9        30.31F
CLAUDE 12SW      N/A     64  28  26 E10       30.31F
DIMMITT 2NE      N/A     62  28  27 E9        30.30F
FLOYDADA 2NNE    N/A     65  25  22 E10       30.30F
FRIONA 2NE       N/A     65  26  22 SE15      30.30F
GOODLETT 3W      N/A     65  34  31 NE12      30.29F
HART 3N          N/A     63  28  27 E10       30.30F
HEREFORD 2NW     N/A     65  24  21 E9        30.30F
MCLEAN 1E        N/A     62  29  28 E8        30.31F
MEMPHIS 1NE      N/A     66  31  27 E10G24    30.30F
MULESHOE 2SSW    N/A     68  24  18 E14       30.29F
OLTON 6S         N/A     68  22  17 SE8       30.29F
PALO DURO SP     N/A     65  27  23 SE7       30.32F
PAMPA 2E         N/A     62  28  27 E9        30.32
PLAINVIEW 1S     N/A     65  29  25 E9        30.29F
SILVERTON 7ESE   N/A     64  31  29 E12       30.31F
TULIA 2ENE       N/A     62  32  32 E12       30.31F
TURKEY 2WSW      N/A     65  31  27 E10       30.30F
UMBARGER 3NNE    N/A     64  27  25 E9        30.31F
$$

TXZ033>036-039>041-045>048-122100
TEXAS TECH WEST TEXAS MESONET/SOUTH PLAINS

CITY           SKY/WX    TMP DP  RH WIND       PRES   REMARKS
AIKEN 3WSW       N/A     65  30  27 E12       30.31F
ANDREWS 2NE      N/A     73  26  17 E9        30.26F
ANTON 6SSW       N/A     68  28  22 SE9       30.28F
BROWNFIELD 2S    N/A     68  27  21 SE6       30.28F
DENVR CTY 7WNW   N/A     70  19  14 SE8       30.27F
GAIL 2ESE        N/A     70  28  21 E8        30.27F
LAMESA 2SE       N/A     68  29  22 E8        30.28F
LEVELLAND 4S     N/A     69  24  18 E10       30.28F
LUBBOCK 3WNW     N/A     69  26  19 E7        30.29F
MORTON 1ENE      N/A     68  24  19 E10       30.28F
ODONNELL 1N      N/A     69  24  18 E7        30.28F
PLAINS 3N        N/A     71  19  14 S7        30.27F
RALLS 1SE        N/A     69  27  21 E7        30.29F
REESE CENTER     N/A     68  24  19 SE10      30.29F
SEAGRAVES 1SW    N/A     72  24  16 SE7       30.26F
SEMINOLE 2NNE    N/A     73  21  14 SE10      30.25F
SLATON 2NE       N/A     67  26  21 SE8       30.29F
SNYDER 3E        N/A     70  30  22 E9        30.27F
SUNDOWN 8SW      N/A     73  22  15 E9        30.27F
TAHOKA 3NNE      N/A     68  26  20 E5        30.28F
WOLFFORTH 6SSW   N/A     68  28  22 SE5       30.29F
$$

TXZ031-032-036>038-042>044-122100-
TEXAS TECH WEST TEXAS MESONET/ROLLING PLAINS

CITY           SKY/WX    TMP DP  RH WIND       PRES   REMARKS
ASPERMONT 3NE    N/A     70  32  24 NE9       30.27F
FLUVANNA 3WNW    N/A     69  28  21 NE8       30.28F
GRAHAM 5SSW      N/A     67  27  21 SE8       30.29F
GUTHRIE 10WSW    N/A     70  32  25 NE8       30.28F
HASKELL 1NW      N/A     66  32  28 NE12      30.28F
JAYTON 1SSE      N/A     70  32  24 NE9       30.28F
KNOX CITY 3NW    N/A     69  33  26 NE8       30.29F
LK A HENRY 1NW   N/A     71  29  21 E9        30.27F
NORTHFIELD 1S    N/A     67  32  27 E9        30.29F
ODELL 4ENE       N/A     66  36  33 E8        30.30F
PADUCAH 10SW     N/A     66  33  28 NE8       30.29F
POST 1NE         N/A     70  27  20 E7        30.28F
RRING SPRGS 3N   N/A     65  30  27 E7        30.30F
SPUR 1W          N/A     69  28  21 E9        30.27F
WEINERT 2NNE     N/A     68  36  30 NE3       30.29F
WHITE RVR 6NE    N/A     71  26  18 E10       30.28F
$$

TXZ052-054-060>062-072-078-127-140-154-169-122100-
TEXAS TECH WEST TEXAS MESONET/PERMIAN BASIN/
CONCHO VALLEY/BIG COUNTRY/EDWARDS PLATEAU

CITY           SKY/WX    TMP DP  RH WIND       PRES   REMARKS
COYANOSA 2N      N/A     71  24  16 S1        30.25F
JUNCTION 1SSW    N/A     76  33  21 E3        30.23F
MERTZON 3NNE     N/A     74  32  21 E10       30.25F
SAN ANGELO 7NW   N/A     72  31  22 E8        30.24F
STRLNG CT 4WSW   N/A     72  32  23 E10       30.26F
ST LAWRNCE 5SW   N/A     73  25  16 E7        30.24F
SWEETWATR 11SW   N/A     70  32  24 NE14      30.27F
WALL 1E          N/A     71  35  26 E9        30.25F
$$

TXZ055-058-074-075-080-082-122100-
TEXAS TECH WEST TEXAS MESONET/FAR WEST/SOUTHWEST MOUNTAINS/TRANS PECOS

CITY           SKY/WX    TMP DP  RH WIND       PRES   REMARKS
PRSMN GAP BBNP   N/A     79  13   8 SE3       30.22F
GUADLPE MTN NP   N/A     67  11  11 S8        30.34F
$$



USA.gov is the U.S. government's official web portal to all federal, state and local government web resources and services.